Location: Gleizolles
(44.4833°N, 6.7667°E)
Time: 20:11:36
(UTC+00:00)

Tiros 1 despin weight - Pass Details

Date: 28 June 2024
Orbit: 576 x 620 km, 48.2° (Epoch: 19 July)

Event Time Altitude Azimuth Distance (km) Brightness Sun altitude
Rises 10:35:44 0° 254° (WSW) 2,874 ? 65.4°
Reaches altitude 10° 10:38:02 10° 256° (WSW) 1,975 ? 65.6°
Maximum altitude 10:42:35 76° 342° (NNW) 643 ? 66.1°
Drops below altitude 10° 10:47:11 10° 68° (ENE) 1,990 ? 66.5°
Sets 10:49:30 0° 70° (ENE) 2,897 ? 66.7°
